Back to catalog

METEOR 2-17 DEB

AlivePO
NORAD 29300·DEBRIS·🇷🇺 Russia

Launched Jan 30, 1988 from Plesetsk Cosmodrome

Loading…

Next Passes (next 24 hours)

TLE

FreshSource: Space-Track

Epoch: Sep 14, 2026, 02:44 UTC

1 29300U 88005P   26257.11411596  .00002920  00000-0  17548-2 0  9995
2 29300  82.5408 186.1727 0037521  70.7667 289.7559 14.06201446 30215

Track METEOR 2-17 DEB in real time with AllMySat

Download on the App Store